This demonstration page uses our WeatherBlox Daily Observations layout. Learn more.

39.92423, -83.80882

Hourly Observations for September 25, 2017

Temp ( °F °C ) Dew Point ( °F °C ) Humidity (%) Winds ( mph kmh ) Pressure ( in mb ) Visibility ( mi km ) Precip ( " mm )
12:56 am 00:56 Clear 64 17.8 60 15.6 87 87 ENE 3 6 30.03 1017 10 16.09344 0 0
1:56 am 01:56 Clear 63 17.2 60 15.6 90 90 NE 3 6 30.03 1017 10 16.09344 0 0
2:56 am 02:56 Clear 63 17.2 59 15 87 87 Calm 30.03 1017 10 16.09344 0 0
3:56 am 03:56 Clear 61 16.1 59 15 93 93 ENE 3 6 30.03 1017 10 16.09344 0 0
4:56 am 04:56 Clear 61 16.1 59 15 93 93 Calm 30.03 1017 10 16.09344 0 0
5:56 am 05:56 Clear 60 15.6 58 14.4 93 93 Calm 30.03 1017 10 16.09344 0 0
6:56 am 06:56 Clear 60 15.6 59 15 96 96 Calm 30.03 1017 10 16.09344 0 0
7:56 am 07:56 Sunny 60 15.6 59 15 96 96 Calm 30.06 1018 9 14.484096 0 0
8:56 am 08:56 Sunny 66 18.9 63 17.2 90 90 Calm 30.06 1018 10 16.09344 0 0
9:56 am 09:56 Sunny 75 23.9 65 18.3 71 71 ESE 3 6 30.06 1018 10 16.09344 0 0
10:56 am 10:56 Sunny 81 27.2 65 18.3 58 58 WSW 5 7 30.06 1018 10 16.09344 0 0
11:56 am 11:56 Sunny 84 28.9 66 18.9 55 55 Calm 30.03 1017 10 16.09344 0 0
12:56 pm 12:56 Sunny 86 30 64 17.8 48 48 undefined N/A 30.03 1017 10 16.09344 0 0
1:56 pm 13:56 Sunny 87 30.6 63 17.2 45 45 Calm 30.03 1017 10 16.09344 0 0
2:56 pm 14:56 Sunny 88 31.1 61 16.1 40 40 WNW 5 7 30 1016 10 16.09344 0 0
3:56 pm 15:56 Sunny 88 31.1 60 15.6 39 39 SW 7 11 29.97 1015 10 16.09344 0 0
4:56 pm 16:56 Sunny 85 29.4 61 16.1 45 45 W 7 11 29.97 1015 10 16.09344 0 0
5:56 pm 17:56 Sunny 84 28.9 63 17.2 49 49 W 6 9 29.97 1015 10 16.09344 0 0
6:56 pm 18:56 Sunny 79 26.1 65 18.3 62 62 WSW 3 6 29.97 1015 10 16.09344 0 0
7:56 pm 19:56 Clear 74 23.3 65 18.3 74 74 Calm 29.97 1015 9 14.484096 0 0
8:56 pm 20:56 Clear 73 22.8 65 18.3 76 76 Calm 29.97 1015 10 16.09344 0 0
9:56 pm 21:56 Clear 70 21.1 65 18.3 84 84 SE 3 6 29.97 1015 10 16.09344 0 0
10:56 pm 22:56 Clear 68 20 64 17.8 87 87 Calm 29.97 1015 10 16.09344 0 0
11:56 pm 23:56 Clear 67 19.4 63 17.2 87 87 SE 5 7 29.97 1015 10 16.09344 0 0

Powered by AerisWeather